Flag for Germany Weather past 2 weeks in Kassel, Hesse, Germany

Now
43 °F

Sunny.


Feels Like: 39 °F
Forecast: 28 / 57 °F
Wind: 6 mph from Southwest

Location: Kassel / Calden

Current Time: Apr 28, 2015 at 9:23:12 PM

Latest Report: Apr 28, 2015 at 8:50 PM


Visibility: 10 mi

Pressure: 30.09 "Hg

Humidity: 76%

Dew point: 36 °F

Location of KasselLocation

Historic Weather in Kassel — Graph

°F

Kassel temperature yesterday

Maximum temperature yesterday: 52 °F (at 8:50 AM)
Minimum temperature yesterday: 43 °F (at 4:20 PM)
Average temperature yesterday: 46 °F

Past Weeks' High & Low Weather Summary

 TemperatureHumidityPressure
High73 °F (Apr 15, 3:50 PM)100% (Apr 23, 6:50 AM)30.42 "Hg (Apr 23, 6:50 AM)
Low30 °F (Apr 19, 6:20 AM)26% (Apr 21, 6:20 PM)29.56 "Hg (Apr 27, 6:20 AM)
Average52 °F64%30.06 "Hg
* Reported Apr 13 8:20 PM — Apr 28 8:20 PM, Kassel, Weather by CustomWeather, © 2015

Note: Actual official high and low records may vary slightly from our data, if they occured in-between our weather recording intervals... More about our weather records

Advertising

Kassel weather history for previous 24 hours

 ConditionsComfort  
Time TempWeatherWind HumidityBarometerVisibility
8:20 PM
Tue, Apr 28
45 °FSunny.8 mph66%30.07 "Hg10 mi
7:50 PM45 °FPassing clouds.12 mph66%30.07 "HgN/A
7:20 PM46 °FOvercast.12 mph62%30.07 "HgN/A
6:50 PM46 °FLight rain. Partly sunny.18 mph66%30.07 "HgN/A
6:20 PM46 °FBroken clouds.18 mph66%30.04 "HgN/A
5:50 PM45 °FPartly sunny.12 mph76%30.04 "HgN/A
5:20 PM45 °FLight rain. Broken clouds.25 mph76%30.01 "HgN/A
4:50 PM46 °FBroken clouds.23 mph71%30.01 "HgN/A
4:20 PM52 °FMostly cloudy.10 mph44%29.98 "HgN/A
3:50 PM52 °FPassing clouds.8 mph38%29.98 "HgN/A
3:20 PM54 °FPassing clouds.9 mph38%29.98 "HgN/A
2:50 PM52 °FPassing clouds.12 mph44%29.98 "HgN/A
2:20 PM52 °FPassing clouds.12 mph28%29.98 "HgN/A
1:50 PM50 °FPassing clouds.9 mph40%29.98 "HgN/A
1:20 PM50 °FPassing clouds.12 mph50%29.95 "HgN/A
12:50 PM46 °FPassing clouds.13 mph53%29.95 "HgN/A
12:20 PM46 °FPassing clouds.10 mph57%29.95 "HgN/A
11:50 AM46 °FPassing clouds.9 mph62%29.95 "HgN/A
11:20 AM45 °FPassing clouds.10 mph66%29.95 "HgN/A
10:50 AM43 °FPassing clouds.10 mph71%29.92 "HgN/A
10:20 AM43 °FPassing clouds.9 mph76%29.92 "HgN/A
9:50 AM41 °FPassing clouds.8 mph76%29.92 "HgN/A
9:20 AM39 °FSunny.9 mph81%29.92 "Hg10 mi
8:50 AM39 °FSunny.9 mph81%29.89 "Hg10 mi
8:20 AM37 °FSunny.9 mph87%29.89 "Hg10 mi
7:50 AM36 °FSunny.10 mph87%29.89 "Hg10 mi
7:20 AM36 °FSunny.9 mph87%29.86 "Hg10 mi
6:50 AM36 °FClear.9 mph87%29.86 "Hg10 mi
6:20 AM36 °FClear.9 mph87%29.83 "Hg10 mi
9:50 PM
Mon, Apr 27
43 °FOvercast.8 mph93%29.77 "HgN/A
9:20 PM43 °FOvercast.8 mph93%29.77 "HgN/A
Weather by CustomWeather, © 2015

See weather overviewHow to use our weather pages